Orbital Elements at Epoch 2459000.5 (2020-May-31.0) TDB
Reference: JPL 19 (heliocentric ecliptic J2000)
Element | Value | Uncertainty (1-sigma) | Units |
e | .2285065453839886 | 3.845e-08 | |
a | 2.309820929983458 | 9.4021e-09 | au |
q | 1.782011728817307 | 8.9778e-08 | au |
i | 8.56303139625328 | 5.0373e-06 | deg |
node | 82.99063169071803 | 3.2494e-05 | deg |
peri | 338.8435466815215 | 3.4821e-05 | deg |
M | 329.7873675444756 | 1.2764e-05 | deg |
tp | 2459108.109834128987 (2020-Sep-15.60983413) | 4.568e-05 | TDB |
period | 1282.229886570238 3.51 | 7.8289e-06 2.143e-08 | d yr |
n | .2807608867727635 | 1.7142e-09 | deg/d |
Q | 2.83763013114961 | 1.155e-08 | au |
|
| | Orbit Determination Parameters
Additional Information
|